Wetterdaten: Montag, 07.09.2015
Datum Zeit Auen-Temp. Temp gefhlt Luftfeuchte Luftdruck Regen Wind Richtung Richtung Taupunkt Windben
07.09.2015 00:00 6,7 C 6,5 C 89 % 1018,1 hPa 0,0 mm 0,8 km/h (0 Bft) S-SO 157 5,0 C 0,0 km/h (0 Bft)
07.09.2015 00:05 6,6 C 6,5 C 89 % 1018,1 hPa 0,0 mm 0,0 km/h (0 Bft) S-SO 157 4,9 C 0,0 km/h (0 Bft)
07.09.2015 00:10 6,3 C 6,2 C 88 % 1018,1 hPa 0,0 mm 0,0 km/h (0 Bft) S 180 4,5 C 0,0 km/h (0 Bft)
07.09.2015 00:15 6,2 C 6,0 C 88 % 1018,1 hPa 0,0 mm 0,0 km/h (0 Bft) S 180 4,4 C 0,0 km/h (0 Bft)
07.09.2015 00:20 6,1 C 5,9 C 88 % 1018,1 hPa 0,0 mm 0,0 km/h (0 Bft) S-SO 157 4,3 C 0,0 km/h (0 Bft)
07.09.2015 00:25 6,0 C 5,8 C 88 % 1018,1 hPa 0,0 mm 0,0 km/h (0 Bft) S-SO 157 4,2 C 0,0 km/h (0 Bft)
07.09.2015 00:30 6,0 C 5,8 C 89 % 1018,1 hPa 0,0 mm 0,0 km/h (0 Bft) S-SO 157 4,3 C 0,0 km/h (0 Bft)
07.09.2015 00:35 6,0 C 5,8 C 89 % 1018,2 hPa 0,0 mm 0,3 km/h (0 Bft) S 180 4,3 C 2,8 km/h (1 Bft)
07.09.2015 00:40 6,0 C 5,8 C 89 % 1018,2 hPa 0,0 mm 0,3 km/h (0 Bft) S-SO 157 4,3 C 0,0 km/h (0 Bft)
07.09.2015 00:45 5,9 C 5,7 C 89 % 1018,2 hPa 0,0 mm 0,0 km/h (0 Bft) S-SW 202 4,2 C 0,0 km/h (0 Bft)
07.09.2015 00:50 5,9 C 5,7 C 89 % 1018,2 hPa 0,0 mm 0,0 km/h (0 Bft) S-SO 157 4,2 C 0,0 km/h (0 Bft)
07.09.2015 00:55 5,7 C 5,5 C 89 % 1018,2 hPa 0,0 mm 0,0 km/h (0 Bft) S-SO 157 4,0 C 0,0 km/h (0 Bft)
07.09.2015 01:00 5,4 C 5,2 C 89 % 1018,2 hPa 0,0 mm 0,0 km/h (0 Bft) S-SW 202 3,7 C 0,0 km/h (0 Bft)
07.09.2015 01:01 5,4 C 5,2 C 89 % 1018,2 hPa 0,0 mm 0,0 km/h (0 Bft) S-SW 202 3,7 C 0,0 km/h (0 Bft)
07.09.2015 01:05 5,4 C 5,2 C 89 % 1018,2 hPa 0,0 mm 0,0 km/h (0 Bft) S-SW 202 3,7 C 0,0 km/h (0 Bft)
07.09.2015 01:10 5,4 C 5,2 C 89 % 1018,2 hPa 0,0 mm 1,0 km/h (0 Bft) S 180 3,7 C 7,8 km/h (2 Bft)
07.09.2015 01:15 5,4 C 5,2 C 89 % 1018,1 hPa 0,0 mm 1,0 km/h (0 Bft) S 180 3,7 C 0,0 km/h (0 Bft)
07.09.2015 01:20 5,2 C 5,0 C 89 % 1018,1 hPa 0,0 mm 0,5 km/h (0 Bft) S 180 3,5 C 0,0 km/h (0 Bft)
07.09.2015 01:25 5,2 C 5,0 C 89 % 1018,1 hPa 0,0 mm 0,0 km/h (0 Bft) SW 225 3,5 C 0,0 km/h (0 Bft)
07.09.2015 01:30 5,6 C 5,3 C 89 % 1018,1 hPa 0,0 mm 0,0 km/h (0 Bft) S 180 3,9 C 0,0 km/h (0 Bft)
07.09.2015 01:35 5,6 C 5,4 C 90 % 1017,9 hPa 0,0 mm 0,0 km/h (0 Bft) S-SW 202 4,1 C 0,0 km/h (0 Bft)
07.09.2015 01:40 5,7 C 5,5 C 90 % 1017,9 hPa 0,0 mm 0,0 km/h (0 Bft) SW 225 4,2 C 0,0 km/h (0 Bft)
07.09.2015 01:45 5,8 C 5,6 C 90 % 1017,9 hPa 0,0 mm 0,0 km/h (0 Bft) S-SO 157 4,3 C 0,0 km/h (0 Bft)
07.09.2015 01:50 5,8 C 5,6 C 90 % 1017,9 hPa 0,0 mm 0,0 km/h (0 Bft) SO 135 4,3 C 0,0 km/h (0 Bft)
07.09.2015 01:55 5,8 C 5,6 C 91 % 1017,9 hPa 0,0 mm 0,0 km/h (0 Bft) SO 135 4,4 C 0,0 km/h (0 Bft)
07.09.2015 02:00 5,9 C 5,7 C 91 % 1017,9 hPa 0,0 mm 1,6 km/h (1 Bft) SW 225 4,5 C 10,4 km/h (2 Bft)
07.09.2015 02:05 5,9 C 5,7 C 91 % 1017,9 hPa 0,0 mm 2,3 km/h (1 Bft) S 180 4,5 C 0,0 km/h (0 Bft)
07.09.2015 02:10 6,0 C 5,8 C 90 % 1017,9 hPa 0,0 mm 2,1 km/h (1 Bft) W-SW 247 4,5 C 3,6 km/h (1 Bft)
07.09.2015 02:15 6,0 C 5,8 C 90 % 1017,7 hPa 0,0 mm 0,8 km/h (0 Bft) W-SW 247 4,5 C 0,0 km/h (0 Bft)
07.09.2015 02:20 6,1 C 5,9 C 90 % 1017,7 hPa 0,0 mm 1,8 km/h (1 Bft) S 180 4,6 C 0,0 km/h (0 Bft)
07.09.2015 02:25 6,1 C 5,9 C 90 % 1017,7 hPa 0,0 mm 2,3 km/h (1 Bft) S 180 4,6 C 0,0 km/h (0 Bft)
07.09.2015 02:30 6,1 C 6,0 C 86 % 1017,7 hPa 0,0 mm 1,0 km/h (0 Bft) S 180 3,9 C 0,0 km/h (0 Bft)
07.09.2015 02:35 6,1 C 6,0 C 90 % 1017,6 hPa 0,0 mm 0,0 km/h (0 Bft) S-SW 202 4,6 C 0,0 km/h (0 Bft)
07.09.2015 02:40 6,1 C 6,0 C 90 % 1017,6 hPa 0,0 mm 0,8 km/h (0 Bft) S 180 4,6 C 0,0 km/h (0 Bft)
07.09.2015 02:45 5,9 C 5,8 C 90 % 1017,6 hPa 0,0 mm 0,8 km/h (0 Bft) S 180 4,4 C 0,0 km/h (0 Bft)
07.09.2015 02:50 5,5 C 5,3 C 90 % 1017,6 hPa 0,0 mm 0,0 km/h (0 Bft) S 180 4,0 C 0,0 km/h (0 Bft)
07.09.2015 02:55 5,2 C 5,0 C 89 % 1017,4 hPa 0,0 mm 0,8 km/h (0 Bft) W 270 3,5 C 4,7 km/h (1 Bft)
07.09.2015 03:00 5,2 C 4,9 C 89 % 1017,4 hPa 0,0 mm 2,8 km/h (1 Bft) S 180 3,5 C 11,7 km/h (2 Bft)
07.09.2015 03:05 4,9 C 4,6 C 89 % 1017,4 hPa 0,0 mm 2,6 km/h (1 Bft) W-SW 247 3,2 C 0,0 km/h (0 Bft)
07.09.2015 03:10 4,8 C 4,5 C 89 % 1017,4 hPa 0,0 mm 0,3 km/h (0 Bft) S 180 3,1 C 0,0 km/h (0 Bft)
07.09.2015 03:15 4,7 C 4,4 C 89 % 1017,2 hPa 0,0 mm 0,3 km/h (0 Bft) S 180 3,0 C 0,0 km/h (0 Bft)
07.09.2015 03:20 4,3 C 4,0 C 89 % 1017,2 hPa 0,0 mm 0,0 km/h (0 Bft) S 180 2,7 C 0,0 km/h (0 Bft)
07.09.2015 03:25 4,2 C 3,9 C 89 % 1017,2 hPa 0,0 mm 0,0 km/h (0 Bft) W-SW 247 2,6 C 0,0 km/h (0 Bft)
07.09.2015 03:30 4,3 C 3,9 C 89 % 1017,2 hPa 0,0 mm 1,3 km/h (1 Bft) SW 225 2,7 C 5,7 km/h (1 Bft)
07.09.2015 03:35 4,4 C 4,0 C 89 % 1017,2 hPa 0,0 mm 2,6 km/h (1 Bft) W 270 2,7 C 4,4 km/h (1 Bft)
07.09.2015 03:40 4,2 C 3,9 C 89 % 1017,2 hPa 0,0 mm 1,8 km/h (1 Bft) W-SW 247 2,6 C 0,0 km/h (0 Bft)
07.09.2015 03:45 4,3 C 4,0 C 89 % 1017,2 hPa 0,0 mm 0,5 km/h (0 Bft) SW 225 2,7 C 0,0 km/h (0 Bft)
07.09.2015 03:50 4,6 C 4,3 C 90 % 1017,2 hPa 0,0 mm 0,3 km/h (0 Bft) S 180 3,1 C 0,0 km/h (0 Bft)
07.09.2015 03:55 4,3 C 4,1 C 90 % 1017,1 hPa 0,0 mm 0,3 km/h (0 Bft) W-SW 247 2,8 C 0,0 km/h (0 Bft)
07.09.2015 04:00 4,4 C 4,1 C 90 % 1017,1 hPa 0,0 mm 1,0 km/h (0 Bft) W-SW 247 2,9 C 8,8 km/h (2 Bft)
07.09.2015 04:05 4,5 C 4,2 C 90 % 1017,1 hPa 0,0 mm 2,6 km/h (1 Bft) S 180 3,0 C 0,0 km/h (0 Bft)
07.09.2015 04:10 4,1 C 3,9 C 90 % 1017,1 hPa 0,0 mm 2,1 km/h (1 Bft) SW 225 2,6 C 0,0 km/h (0 Bft)
07.09.2015 04:15 4,0 C 3,8 C 90 % 1017,0 hPa 0,0 mm 0,0 km/h (0 Bft) S 180 2,5 C 0,0 km/h (0 Bft)
07.09.2015 04:20 3,7 C 3,4 C 90 % 1017,0 hPa 0,0 mm 0,0 km/h (0 Bft) S 180 2,2 C 0,0 km/h (0 Bft)
07.09.2015 04:25 3,7 C 3,4 C 90 % 1017,0 hPa 0,0 mm 0,0 km/h (0 Bft) S 180 2,2 C 0,0 km/h (0 Bft)
07.09.2015 04:30 3,7 C 3,3 C 90 % 1017,0 hPa 0,0 mm 0,0 km/h (0 Bft) S 180 2,2 C 0,0 km/h (0 Bft)
07.09.2015 04:35 3,7 C 3,3 C 90 % 1016,8 hPa 0,0 mm 0,3 km/h (0 Bft) W-SW 247 2,2 C 5,7 km/h (1 Bft)
07.09.2015 04:40 4,1 C 3,8 C 90 % 1016,8 hPa 0,0 mm 0,3 km/h (0 Bft) W 270 2,6 C 0,0 km/h (0 Bft)
07.09.2015 04:45 4,1 C 3,8 C 90 % 1016,8 hPa 0,0 mm 0,3 km/h (0 Bft) W 270 2,6 C 0,0 km/h (0 Bft)
07.09.2015 04:50 4,3 C 4,1 C 91 % 1016,8 hPa 0,0 mm 0,0 km/h (0 Bft) W-SW 247 3,0 C 0,0 km/h (0 Bft)
07.09.2015 04:55 4,5 C 4,3 C 91 % 1017,2 hPa 0,0 mm 0,0 km/h (0 Bft) O-NO 67 3,2 C 0,0 km/h (0 Bft)
07.09.2015 05:00 4,5 C 4,3 C 91 % 1017,2 hPa 0,0 mm 0,0 km/h (0 Bft) NW 315 3,2 C 0,0 km/h (0 Bft)
07.09.2015 05:05 4,3 C 4,1 C 91 % 1017,2 hPa 0,0 mm 0,0 km/h (0 Bft) NW 315 3,0 C 0,0 km/h (0 Bft)
07.09.2015 05:10 4,2 C 4,0 C 91 % 1017,2 hPa 0,0 mm 0,0 km/h (0 Bft) NO 45 2,9 C 0,0 km/h (0 Bft)
07.09.2015 05:15 4,2 C 4,0 C 91 % 1016,9 hPa 0,0 mm 0,0 km/h (0 Bft) NO 45 2,9 C 0,0 km/h (0 Bft)
07.09.2015 05:20 4,1 C 3,9 C 91 % 1016,9 hPa 0,0 mm 0,0 km/h (0 Bft) NO 45 2,8 C 0,0 km/h (0 Bft)
07.09.2015 05:25 4,1 C 3,9 C 91 % 1016,9 hPa 0,0 mm 0,0 km/h (0 Bft) NO 45 2,8 C 0,0 km/h (0 Bft)
07.09.2015 05:30 4,2 C 4,0 C 91 % 1016,9 hPa 0,0 mm 0,0 km/h (0 Bft) NW 315 2,9 C 0,0 km/h (0 Bft)
07.09.2015 05:35 4,4 C 4,2 C 91 % 1017,0 hPa 0,0 mm 0,0 km/h (0 Bft) NO 45 3,1 C 0,0 km/h (0 Bft)
07.09.2015 05:40 4,5 C 4,3 C 91 % 1017,0 hPa 0,0 mm 0,0 km/h (0 Bft) NO 45 3,2 C 0,0 km/h (0 Bft)
07.09.2015 05:45 4,5 C 4,3 C 91 % 1017,0 hPa 0,0 mm 0,0 km/h (0 Bft) N-NO 22 3,2 C 0,0 km/h (0 Bft)
07.09.2015 05:50 4,4 C 4,2 C 91 % 1017,0 hPa 0,0 mm 0,0 km/h (0 Bft) N-NW 337 3,1 C 0,0 km/h (0 Bft)
07.09.2015 05:55 4,3 C 4,1 C 91 % 1017,1 hPa 0,0 mm 0,0 km/h (0 Bft) NW 315 3,0 C 0,0 km/h (0 Bft)
07.09.2015 06:00 4,4 C 4,2 C 91 % 1017,1 hPa 0,0 mm 0,3 km/h (0 Bft) W-SW 247 3,1 C 0,0 km/h (0 Bft)
07.09.2015 06:05 4,3 C 4,1 C 91 % 1017,1 hPa 0,0 mm 0,3 km/h (0 Bft) W-SW 247 3,0 C 0,0 km/h (0 Bft)
07.09.2015 06:10 4,4 C 4,2 C 91 % 1017,1 hPa 0,0 mm 0,0 km/h (0 Bft) SW 225 3,1 C 0,0 km/h (0 Bft)
07.09.2015 06:15 4,4 C 4,2 C 91 % 1016,9 hPa 0,0 mm 0,0 km/h (0 Bft) SW 225 3,1 C 0,0 km/h (0 Bft)
07.09.2015 06:20 4,3 C 4,1 C 91 % 1016,9 hPa 0,0 mm 0,0 km/h (0 Bft) N-NO 22 3,0 C 0,0 km/h (0 Bft)
07.09.2015 06:25 4,3 C 4,0 C 91 % 1016,9 hPa 0,0 mm 0,0 km/h (0 Bft) NO 45 3,0 C 0,0 km/h (0 Bft)
07.09.2015 06:30 3,9 C 3,7 C 91 % 1016,9 hPa 0,0 mm 0,0 km/h (0 Bft) NO 45 2,6 C 0,0 km/h (0 Bft)
07.09.2015 06:35 3,8 C 3,5 C 91 % 1017,0 hPa 0,0 mm 0,0 km/h (0 Bft) NO 45 2,5 C 0,0 km/h (0 Bft)
07.09.2015 06:40 3,7 C 3,4 C 91 % 1017,0 hPa 0,0 mm 0,8 km/h (0 Bft) S-SW 202 2,4 C 0,0 km/h (0 Bft)
07.09.2015 06:45 3,7 C 3,4 C 91 % 1017,0 hPa 0,0 mm 0,8 km/h (0 Bft) S-SW 202 2,4 C 0,0 km/h (0 Bft)
07.09.2015 06:50 3,7 C 3,4 C 91 % 1017,0 hPa 0,0 mm 0,0 km/h (0 Bft) S-SW 202 2,4 C 0,0 km/h (0 Bft)
07.09.2015 06:55 3,8 C 3,6 C 88 % 1016,9 hPa 0,0 mm 0,0 km/h (0 Bft) S-SW 202 2,0 C 0,0 km/h (0 Bft)
07.09.2015 07:00 4,2 C 3,9 C 91 % 1016,9 hPa 0,0 mm 1,0 km/h (0 Bft) SO 135 2,9 C 3,4 km/h (1 Bft)
07.09.2015 07:02 4,2 C 4,0 C 91 % 1016,9 hPa 0,0 mm 1,3 km/h (1 Bft) S 180 2,9 C 0,0 km/h (0 Bft)
07.09.2015 07:05 4,2 C 4,0 C 91 % 1016,9 hPa 0,0 mm 1,3 km/h (1 Bft) S 180 2,9 C 0,0 km/h (0 Bft)
07.09.2015 07:10 4,4 C 4,2 C 92 % 1016,9 hPa 0,0 mm 1,3 km/h (1 Bft) SW 225 3,2 C 3,6 km/h (1 Bft)
07.09.2015 07:15 4,6 C 4,4 C 92 % 1017,0 hPa 0,0 mm 2,6 km/h (1 Bft) S 180 3,4 C 0,0 km/h (0 Bft)
07.09.2015 07:20 4,8 C 4,6 C 92 % 1017,0 hPa 0,0 mm 2,1 km/h (1 Bft) W-SW 247 3,6 C 12,9 km/h (3 Bft)
07.09.2015 07:25 4,9 C 4,7 C 92 % 1017,0 hPa 0,0 mm 1,0 km/h (0 Bft) S 180 3,7 C 0,0 km/h (0 Bft)
07.09.2015 07:30 5,0 C 4,9 C 88 % 1017,0 hPa 0,0 mm 0,8 km/h (0 Bft) S-SO 157 3,2 C 0,0 km/h (0 Bft)
07.09.2015 07:35 5,0 C 5,1 C 88 % 1017,1 hPa 0,0 mm 0,0 km/h (0 Bft) S-SW 202 3,2 C 0,0 km/h (0 Bft)
07.09.2015 07:40 5,2 C 5,3 C 88 % 1017,1 hPa 0,0 mm 0,3 km/h (0 Bft) W-SW 247 3,4 C 0,0 km/h (0 Bft)
07.09.2015 07:45 5,3 C 5,3 C 88 % 1017,1 hPa 0,0 mm 1,3 km/h (1 Bft) W 270 3,5 C 6,0 km/h (2 Bft)
07.09.2015 07:50 5,6 C 5,4 C 92 % 1017,1 hPa 0,0 mm 3,1 km/h (1 Bft) W-SW 247 4,4 C 0,0 km/h (0 Bft)
07.09.2015 07:55 5,6 C 5,5 C 88 % 1017,2 hPa 0,0 mm 2,3 km/h (1 Bft) W 270 3,8 C 0,0 km/h (0 Bft)
07.09.2015 08:00 5,8 C 5,7 C 88 % 1017,2 hPa 0,0 mm 0,0 km/h (0 Bft) W-SW 247 4,0 C 0,0 km/h (0 Bft)
07.09.2015 08:05 5,8 C 5,9 C 88 % 1017,2 hPa 0,0 mm 0,8 km/h (0 Bft) S 180 4,0 C 0,0 km/h (0 Bft)
07.09.2015 08:10 6,0 C 6,0 C 87 % 1017,2 hPa 0,0 mm 2,8 km/h (1 Bft) S 180 4,0 C 5,4 km/h (1 Bft)
07.09.2015 08:15 6,0 C 6,2 C 87 % 1017,2 hPa 0,0 mm 4,4 km/h (1 Bft) S-SW 202 4,0 C 10,4 km/h (2 Bft)
07.09.2015 08:20 6,2 C 6,4 C 87 % 1017,2 hPa 0,0 mm 3,9 km/h (1 Bft) W-SW 247 4,2 C 3,6 km/h (1 Bft)
07.09.2015 08:25 6,3 C 6,6 C 87 % 1017,2 hPa 0,0 mm 3,6 km/h (1 Bft) SW 225 4,3 C 12,9 km/h (3 Bft)
07.09.2015 08:30 6,5 C 6,7 C 87 % 1017,2 hPa 0,0 mm 5,7 km/h (1 Bft) S 180 4,5 C 13,2 km/h (3 Bft)
07.09.2015 08:35 6,5 C 6,6 C 86 % 1017,5 hPa 0,0 mm 8,0 km/h (2 Bft) W-SW 247 4,3 C 10,6 km/h (2 Bft)
07.09.2015 08:40 6,6 C 6,7 C 86 % 1017,5 hPa 0,0 mm 9,1 km/h (2 Bft) W-SW 247 4,4 C 10,6 km/h (2 Bft)
07.09.2015 08:45 6,6 C 6,9 C 86 % 1017,5 hPa 0,0 mm 9,1 km/h (2 Bft) SW 225 4,4 C 9,3 km/h (2 Bft)
07.09.2015 08:50 6,8 C 7,3 C 86 % 1017,5 hPa 0,0 mm 7,8 km/h (2 Bft) SW 225 4,6 C 7,0 km/h (2 Bft)
07.09.2015 08:55 7,0 C 7,7 C 85 % 1017,4 hPa 0,0 mm 7,3 km/h (2 Bft) SW 225 4,7 C 8,5 km/h (2 Bft)
07.09.2015 09:00 7,2 C 7,9 C 85 % 1017,4 hPa 0,0 mm 7,3 km/h (2 Bft) SW 225 4,9 C 7,8 km/h (2 Bft)
07.09.2015 09:05 7,3 C 8,4 C 85 % 1017,4 hPa 0,0 mm 6,7 km/h (2 Bft) S-SW 202 4,9 C 7,8 km/h (2 Bft)
07.09.2015 09:10 7,6 C 8,9 C 85 % 1017,4 hPa 0,0 mm 5,7 km/h (1 Bft) S-SW 202 5,2 C 5,2 km/h (1 Bft)
07.09.2015 09:15 8,0 C 9,5 C 85 % 1017,6 hPa 0,0 mm 3,9 km/h (1 Bft) S-SW 202 5,6 C 2,6 km/h (1 Bft)
07.09.2015 09:20 8,7 C 11,0 C 85 % 1017,6 hPa 0,0 mm 2,1 km/h (1 Bft) S-SW 202 6,3 C 3,1 km/h (1 Bft)
07.09.2015 09:25 8,9 C 11,6 C 84 % 1017,6 hPa 0,0 mm 2,1 km/h (1 Bft) W-SW 247 6,3 C 0,0 km/h (0 Bft)
07.09.2015 09:30 9,1 C 12,5 C 83 % 1017,6 hPa 0,0 mm 3,1 km/h (1 Bft) SW 225 6,4 C 7,0 km/h (2 Bft)
07.09.2015 09:35 9,1 C 12,5 C 83 % 1017,6 hPa 0,0 mm 3,9 km/h (1 Bft) SW 225 6,4 C 5,4 km/h (1 Bft)
07.09.2015 09:40 9,5 C 13,5 C 82 % 1017,6 hPa 0,0 mm 5,4 km/h (1 Bft) W-NW 292 6,6 C 16,8 km/h (3 Bft)
07.09.2015 09:45 9,9 C 13,8 C 81 % 1017,6 hPa 0,0 mm 4,4 km/h (1 Bft) W 270 6,8 C 6,5 km/h (2 Bft)
07.09.2015 09:50 10,2 C 14,7 C 80 % 1017,6 hPa 0,0 mm 2,3 km/h (1 Bft) NW 315 6,9 C 0,0 km/h (0 Bft)
07.09.2015 09:55 10,2 C 14,9 C 79 % 1017,8 hPa 0,0 mm 4,1 km/h (1 Bft) SW 225 6,7 C 3,1 km/h (1 Bft)
07.09.2015 10:00 10,2 C 14,3 C 78 % 1017,8 hPa 0,0 mm 3,9 km/h (1 Bft) W-SW 247 6,5 C 19,4 km/h (3 Bft)
07.09.2015 10:05 10,2 C 14,0 C 78 % 1017,8 hPa 0,0 mm 2,8 km/h (1 Bft) W 270 6,5 C 7,0 km/h (2 Bft)
07.09.2015 10:10 10,3 C 14,0 C 77 % 1017,8 hPa 0,0 mm 2,8 km/h (1 Bft) NW 315 6,4 C 9,8 km/h (2 Bft)
07.09.2015 10:15 10,5 C 14,6 C 76 % 1018,3 hPa 0,0 mm 4,7 km/h (1 Bft) W 270 6,5 C 4,9 km/h (1 Bft)
07.09.2015 10:20 10,9 C 15,5 C 74 % 1018,3 hPa 0,0 mm 5,4 km/h (1 Bft) NW 315 6,5 C 7,0 km/h (2 Bft)
07.09.2015 10:25 10,9 C 15,4 C 73 % 1018,3 hPa 0,0 mm 5,4 km/h (1 Bft) S 180 6,3 C 5,2 km/h (1 Bft)
07.09.2015 10:30 11,0 C 15,4 C 71 % 1018,3 hPa 0,0 mm 5,4 km/h (1 Bft) NW 315 5,9 C 5,7 km/h (1 Bft)
07.09.2015 10:35 11,2 C 15,4 C 72 % 1018,6 hPa 0,0 mm 5,2 km/h (1 Bft) N-NW 337 6,3 C 6,7 km/h (2 Bft)
07.09.2015 10:40 11,2 C 15,1 C 70 % 1018,6 hPa 0,0 mm 6,0 km/h (2 Bft) W 270 5,9 C 9,3 km/h (2 Bft)
07.09.2015 10:45 11,2 C 14,9 C 69 % 1018,6 hPa 0,0 mm 6,7 km/h (2 Bft) NW 315 5,7 C 9,8 km/h (2 Bft)
07.09.2015 10:50 11,7 C 15,8 C 68 % 1018,6 hPa 0,0 mm 7,5 km/h (2 Bft) NW 315 6,0 C 7,3 km/h (2 Bft)
07.09.2015 10:55 11,9 C 16,4 C 68 % 1018,9 hPa 0,0 mm 7,5 km/h (2 Bft) S 180 6,2 C 5,4 km/h (1 Bft)
07.09.2015 11:00 12,2 C 17,1 C 68 % 1018,9 hPa 0,0 mm 6,2 km/h (2 Bft) W-NW 292 6,5 C 7,3 km/h (2 Bft)
07.09.2015 11:05 12,4 C 17,6 C 67 % 1018,9 hPa 0,0 mm 5,7 km/h (1 Bft) W 270 6,4 C 4,4 km/h (1 Bft)
07.09.2015 11:10 12,4 C 17,8 C 67 % 1018,9 hPa 0,0 mm 5,2 km/h (1 Bft) NW 315 6,4 C 5,7 km/h (1 Bft)
07.09.2015 11:15 12,7 C 17,2 C 68 % 1019,2 hPa 0,0 mm 4,1 km/h (1 Bft) NW 315 6,9 C 9,1 km/h (2 Bft)
07.09.2015 11:20 13,0 C 17,9 C 66 % 1019,2 hPa 0,0 mm 6,0 km/h (2 Bft) NW 315 6,8 C 18,1 km/h (3 Bft)
07.09.2015 11:25 13,1 C 17,8 C 65 % 1019,2 hPa 0,0 mm 8,0 km/h (2 Bft) S-SW 202 6,7 C 12,4 km/h (3 Bft)
07.09.2015 11:30 13,3 C 18,3 C 64 % 1019,2 hPa 0,0 mm 7,8 km/h (2 Bft) NW 315 6,6 C 6,7 km/h (2 Bft)
07.09.2015 11:35 13,1 C 18,2 C 62 % 1019,6 hPa 0,0 mm 9,8 km/h (2 Bft) N-NW 337 6,0 C 23,0 km/h (4 Bft)
07.09.2015 11:40 12,1 C 15,9 C 62 % 1019,6 hPa 0,0 mm 10,4 km/h (2 Bft) NW 315 5,0 C 23,3 km/h (4 Bft)
07.09.2015 11:45 11,8 C 14,7 C 63 % 1019,6 hPa 0,0 mm 8,5 km/h (2 Bft) W 270 5,0 C 9,3 km/h (2 Bft)
07.09.2015 11:50 11,4 C 13,7 C 63 % 1019,6 hPa 0,0 mm 6,7 km/h (2 Bft) W-NW 292 4,6 C 5,4 km/h (1 Bft)
07.09.2015 11:55 11,9 C 13,8 C 64 % 1019,4 hPa 0,0 mm 6,2 km/h (2 Bft) W-SW 247 5,3 C 15,8 km/h (3 Bft)
07.09.2015 12:00 13,2 C 16,7 C 63 % 1019,4 hPa 0,0 mm 7,0 km/h (2 Bft) N-NW 337 6,3 C 16,3 km/h (3 Bft)
07.09.2015 12:05 13,3 C 17,4 C 61 % 1019,4 hPa 0,0 mm 8,5 km/h (2 Bft) NW 315 5,9 C 12,4 km/h (3 Bft)
07.09.2015 12:10 12,7 C 16,9 C 59 % 1019,4 hPa 0,0 mm 8,8 km/h (2 Bft) NW 315 4,9 C 6,2 km/h (2 Bft)
07.09.2015 12:15 13,0 C 16,9 C 60 % 1019,3 hPa 0,0 mm 9,3 km/h (2 Bft) NW 315 5,4 C 12,7 km/h (3 Bft)
07.09.2015 12:20 13,2 C 17,0 C 59 % 1019,3 hPa 0,0 mm 8,8 km/h (2 Bft) NW 315 5,4 C 9,1 km/h (2 Bft)
07.09.2015 12:25 13,4 C 17,2 C 59 % 1019,3 hPa 0,0 mm 8,8 km/h (2 Bft) NW 315 5,6 C 15,0 km/h (3 Bft)
07.09.2015 12:30 13,6 C 17,1 C 58 % 1019,3 hPa 0,0 mm 10,1 km/h (2 Bft) W-NW 292 5,5 C 12,9 km/h (3 Bft)
07.09.2015 12:35 13,6 C 17,3 C 57 % 1019,2 hPa 0,0 mm 10,9 km/h (2 Bft) W 270 5,2 C 11,7 km/h (2 Bft)
07.09.2015 12:40 13,5 C 17,1 C 56 % 1019,2 hPa 0,0 mm 10,4 km/h (2 Bft) W 270 4,9 C 9,3 km/h (2 Bft)
07.09.2015 12:45 13,7 C 17,3 C 56 % 1019,2 hPa 0,0 mm 10,4 km/h (2 Bft) W 270 5,1 C 10,6 km/h (2 Bft)
07.09.2015 12:50 14,1 C 17,8 C 56 % 1019,2 hPa 0,0 mm 9,6 km/h (2 Bft) N-NW 337 5,5 C 18,9 km/h (3 Bft)
07.09.2015 12:55 14,3 C 17,9 C 57 % 1018,9 hPa 0,0 mm 9,3 km/h (2 Bft) NW 315 5,9 C 14,0 km/h (3 Bft)
07.09.2015 13:00 14,3 C 17,9 C 56 % 1018,9 hPa 0,0 mm 11,1 km/h (2 Bft) W-SW 247 5,6 C 8,5 km/h (2 Bft)
07.09.2015 13:03 14,1 C 17,6 C 56 % 1018,9 hPa 0,0 mm 9,6 km/h (2 Bft) W-SW 247 5,5 C 13,7 km/h (3 Bft)
07.09.2015 13:05 14,1 C 17,6 C 56 % 1018,9 hPa 0,0 mm 9,6 km/h (2 Bft) W-SW 247 5,5 C 13,7 km/h (3 Bft)
07.09.2015 13:10 14,0 C 17,3 C 56 % 1018,9 hPa 0,0 mm 7,8 km/h (2 Bft) W-NW 292 5,4 C 15,3 km/h (3 Bft)
07.09.2015 13:15 13,8 C 16,9 C 55 % 1018,9 hPa 0,0 mm 9,8 km/h (2 Bft) W-NW 292 4,9 C 11,4 km/h (2 Bft)
07.09.2015 13:20 14,1 C 17,0 C 56 % 1018,9 hPa 0,0 mm 8,8 km/h (2 Bft) SW 225 5,5 C 26,2 km/h (4 Bft)
07.09.2015 13:25 14,5 C 18,0 C 56 % 1018,9 hPa 0,0 mm 6,7 km/h (2 Bft) W 270 5,8 C 5,7 km/h (1 Bft)
07.09.2015 13:30 14,8 C 19,3 C 56 % 1018,9 hPa 0,0 mm 6,0 km/h (2 Bft) SW 225 6,1 C 7,3 km/h (2 Bft)
07.09.2015 13:35 14,9 C 20,0 C 56 % 1018,7 hPa 0,0 mm 6,5 km/h (2 Bft) W-NW 292 6,2 C 5,4 km/h (1 Bft)
07.09.2015 13:40 15,3 C 20,4 C 54 % 1018,7 hPa 0,0 mm 7,8 km/h (2 Bft) W 270 6,0 C 12,7 km/h (3 Bft)
07.09.2015 13:45 15,3 C 20,2 C 54 % 1018,7 hPa 0,0 mm 8,3 km/h (2 Bft) N-NW 337 6,0 C 9,3 km/h (2 Bft)
07.09.2015 13:50 15,0 C 19,1 C 53 % 1018,7 hPa 0,0 mm 10,1 km/h (2 Bft) O-SO 112 5,5 C 10,1 km/h (2 Bft)
07.09.2015 13:55 15,5 C 19,4 C 53 % 1018,9 hPa 0,0 mm 11,1 km/h (2 Bft) W 270 6,0 C 3,1 km/h (1 Bft)
07.09.2015 14:00 15,6 C 20,2 C 53 % 1018,9 hPa 0,0 mm 10,1 km/h (2 Bft) SW 225 6,1 C 10,6 km/h (2 Bft)
07.09.2015 14:05 15,3 C 20,1 C 53 % 1018,9 hPa 0,0 mm 8,5 km/h (2 Bft) W-NW 292 5,8 C 19,2 km/h (3 Bft)
07.09.2015 14:10 14,9 C 18,9 C 53 % 1019,2 hPa 0,0 mm 8,8 km/h (2 Bft) W-NW 292 5,4 C 8,5 km/h (2 Bft)
07.09.2015 14:15 14,4 C 17,8 C 53 % 1019,2 hPa 0,0 mm 7,3 km/h (2 Bft) W 270 4,9 C 6,7 km/h (2 Bft)
07.09.2015 14:20 14,5 C 17,5 C 53 % 1019,2 hPa 0,0 mm 5,4 km/h (1 Bft) NW 315 5,0 C 14,0 km/h (3 Bft)
07.09.2015 14:25 14,5 C 17,8 C 53 % 1019,2 hPa 0,0 mm 6,5 km/h (2 Bft) W-NW 292 5,0 C 7,5 km/h (2 Bft)
07.09.2015 14:30 14,7 C 18,1 C 53 % 1019,1 hPa 0,0 mm 6,5 km/h (2 Bft) SO 135 5,2 C 4,7 km/h (1 Bft)
07.09.2015 14:35 15,1 C 18,7 C 53 % 1019,1 hPa 0,0 mm 7,0 km/h (2 Bft) W-NW 292 5,6 C 11,4 km/h (2 Bft)
07.09.2015 14:40 15,3 C 19,2 C 53 % 1019,1 hPa 0,0 mm 7,5 km/h (2 Bft) W 270 5,8 C 11,1 km/h (2 Bft)
07.09.2015 14:45 15,6 C 20,4 C 53 % 1019,1 hPa 0,0 mm 5,7 km/h (1 Bft) W 270 6,1 C 8,3 km/h (2 Bft)
07.09.2015 14:50 15,2 C 19,8 C 51 % 1018,6 hPa 0,0 mm 6,7 km/h (2 Bft) NW 315 5,1 C 6,2 km/h (2 Bft)
07.09.2015 14:55 15,4 C 19,0 C 52 % 1018,6 hPa 0,0 mm 11,1 km/h (2 Bft) NW 315 5,6 C 22,5 km/h (4 Bft)
07.09.2015 15:00 15,6 C 19,4 C 52 % 1018,6 hPa 0,0 mm 11,4 km/h (2 Bft) NW 315 5,8 C 11,9 km/h (2 Bft)
07.09.2015 15:05 15,4 C 18,8 C 52 % 1018,6 hPa 0,0 mm 11,4 km/h (2 Bft) W 270 5,6 C 11,4 km/h (2 Bft)
07.09.2015 15:10 15,4 C 18,3 C 52 % 1018,4 hPa 0,0 mm 9,8 km/h (2 Bft) NW 315 5,6 C 11,4 km/h (2 Bft)
07.09.2015 15:15 16,0 C 19,6 C 50 % 1018,4 hPa 0,0 mm 8,5 km/h (2 Bft) N 360 5,6 C 11,9 km/h (2 Bft)
07.09.2015 15:20 16,2 C 20,2 C 50 % 1018,4 hPa 0,0 mm 9,8 km/h (2 Bft) NW 315 5,8 C 22,0 km/h (4 Bft)
07.09.2015 15:25 16,1 C 20,5 C 50 % 1018,4 hPa 0,0 mm 11,4 km/h (2 Bft) N-NO 22 5,7 C 9,6 km/h (2 Bft)
07.09.2015 15:30 16,1 C 20,5 C 50 % 1018,4 hPa 0,0 mm 12,2 km/h (2 Bft) W-NW 292 5,7 C 15,3 km/h (3 Bft)
07.09.2015 15:35 15,7 C 19,6 C 51 % 1018,4 hPa 0,0 mm 11,7 km/h (2 Bft) NW 315 5,6 C 13,5 km/h (3 Bft)
07.09.2015 15:40 16,0 C 19,9 C 50 % 1018,4 hPa 0,0 mm 10,4 km/h (2 Bft) NW 315 5,6 C 14,0 km/h (3 Bft)
07.09.2015 15:43 16,0 C 19,9 C 50 % 1018,4 hPa 0,0 mm 10,4 km/h (2 Bft) NW 315 5,6 C 14,0 km/h (3 Bft)
07.09.2015 15:45 16,0 C 19,9 C 50 % 1018,4 hPa 0,0 mm 10,4 km/h (2 Bft) NW 315 5,6 C 14,0 km/h (3 Bft)
07.09.2015 15:50 15,5 C 19,1 C 51 % 1018,4 hPa 0,0 mm 9,8 km/h (2 Bft) NW 315 5,4 C 15,8 km/h (3 Bft)
07.09.2015 16:00 15,5 C 19,4 C 53 % 1018,1 hPa 0,0 mm 9,8 km/h (2 Bft) NW 315 6,0 C 10,1 km/h (2 Bft)
07.09.2015 16:05 15,5 C 18,9 C 53 % 1026,0 hPa 0,0 mm 11,1 km/h (2 Bft) W-NW 292 6,0 C 15,3 km/h (3 Bft)
07.09.2015 16:10 15,5 C 18,9 C 53 % 1026,0 hPa 0,0 mm 11,1 km/h (2 Bft) W-NW 292 6,0 C 15,3 km/h (3 Bft)
07.09.2015 16:15 15,4 C 18,8 C 53 % 1024,9 hPa 0,0 mm 12,2 km/h (2 Bft) NW 315 5,9 C 14,2 km/h (3 Bft)
07.09.2015 16:20 14,9 C 17,8 C 54 % 1024,9 hPa 0,0 mm 9,3 km/h (2 Bft) N-NW 337 5,7 C 12,2 km/h (2 Bft)
07.09.2015 16:25 14,8 C 18,4 C 54 % 1024,9 hPa 0,0 mm 9,1 km/h (2 Bft) W-NW 292 5,6 C 9,3 km/h (2 Bft)
07.09.2015 16:30 14,3 C 18,4 C 54 % 1024,9 hPa 0,0 mm 10,6 km/h (2 Bft) NW 315 5,1 C 14,0 km/h (3 Bft)
07.09.2015 16:35 14,2 C 18,8 C 54 % 1024,2 hPa 0,0 mm 9,8 km/h (2 Bft) NW 315 5,0 C 15,5 km/h (3 Bft)
07.09.2015 16:40 14,1 C 18,0 C 55 % 1024,2 hPa 0,0 mm 9,6 km/h (2 Bft) NW 315 5,2 C 19,9 km/h (4 Bft)
07.09.2015 16:45 14,1 C 17,0 C 55 % 1024,2 hPa 0,0 mm 9,3 km/h (2 Bft) NW 315 5,2 C 10,9 km/h (2 Bft)
07.09.2015 16:50 14,1 C 15,8 C 56 % 1024,2 hPa 0,0 mm 10,4 km/h (2 Bft) NW 315 5,5 C 8,5 km/h (2 Bft)
07.09.2015 16:55 14,1 C 15,5 C 56 % 1024,1 hPa 0,0 mm 10,9 km/h (2 Bft) NW 315 5,5 C 15,3 km/h (3 Bft)
07.09.2015 17:00 14,0 C 15,0 C 56 % 1024,1 hPa 0,0 mm 10,1 km/h (2 Bft) NW 315 5,4 C 31,3 km/h (5 Bft)
07.09.2015 17:05 13,7 C 14,5 C 56 % 1024,1 hPa 0,0 mm 10,4 km/h (2 Bft) NW 315 5,1 C 9,8 km/h (2 Bft)
07.09.2015 17:10 13,7 C 14,5 C 56 % 1024,1 hPa 0,0 mm 9,6 km/h (2 Bft) NW 315 5,1 C 17,9 km/h (3 Bft)
07.09.2015 17:15 13,6 C 14,4 C 56 % 1024,1 hPa 0,0 mm 9,6 km/h (2 Bft) NW 315 5,0 C 8,8 km/h (2 Bft)
07.09.2015 17:20 13,5 C 14,4 C 56 % 1024,1 hPa 0,0 mm 10,4 km/h (2 Bft) W 270 4,9 C 17,3 km/h (3 Bft)
07.09.2015 17:25 13,5 C 14,4 C 56 % 1024,1 hPa 0,0 mm 8,8 km/h (2 Bft) NW 315 4,9 C 8,3 km/h (2 Bft)
07.09.2015 17:30 13,5 C 14,5 C 57 % 1024,1 hPa 0,0 mm 8,8 km/h (2 Bft) SO 135 5,2 C 6,2 km/h (2 Bft)
07.09.2015 17:35 13,4 C 14,4 C 57 % 1024,2 hPa 0,0 mm 7,8 km/h (2 Bft) W-SW 247 5,1 C 3,4 km/h (1 Bft)
07.09.2015 17:40 13,4 C 14,5 C 57 % 1024,2 hPa 0,0 mm 7,3 km/h (2 Bft) N-NW 337 5,1 C 9,8 km/h (2 Bft)
07.09.2015 17:45 13,5 C 14,5 C 57 % 1024,2 hPa 0,0 mm 7,3 km/h (2 Bft) NW 315 5,2 C 9,8 km/h (2 Bft)
07.09.2015 17:50 13,4 C 14,4 C 57 % 1024,2 hPa 0,0 mm 7,5 km/h (2 Bft) NW 315 5,1 C 15,5 km/h (3 Bft)
07.09.2015 17:55 13,3 C 14,2 C 57 % 1024,1 hPa 0,0 mm 8,8 km/h (2 Bft) NW 315 5,0 C 14,2 km/h (3 Bft)
07.09.2015 18:00 13,1 C 13,8 C 57 % 1024,1 hPa 0,0 mm 8,5 km/h (2 Bft) NW 315 4,8 C 6,5 km/h (2 Bft)
07.09.2015 18:05 13,0 C 13,5 C 58 % 1024,1 hPa 0,0 mm 7,0 km/h (2 Bft) NW 315 4,9 C 5,4 km/h (1 Bft)
07.09.2015 18:10 12,9 C 13,3 C 59 % 1024,1 hPa 0,0 mm 4,9 km/h (1 Bft) W-NW 292 5,1 C 10,4 km/h (2 Bft)
07.09.2015 18:15 12,7 C 13,2 C 58 % 1024,2 hPa 0,0 mm 4,9 km/h (1 Bft) NW 315 4,7 C 4,7 km/h (1 Bft)
07.09.2015 18:20 12,6 C 13,0 C 59 % 1024,2 hPa 0,0 mm 4,1 km/h (1 Bft) NW 315 4,8 C 0,0 km/h (0 Bft)
07.09.2015 18:25 12,6 C 13,0 C 59 % 1024,2 hPa 0,0 mm 1,8 km/h (1 Bft) NW 315 4,8 C 0,0 km/h (0 Bft)
07.09.2015 18:30 12,5 C 12,9 C 59 % 1024,2 hPa 0,0 mm 0,3 km/h (0 Bft) W 270 4,7 C 0,0 km/h (0 Bft)
07.09.2015 18:35 12,5 C 12,9 C 60 % 1024,2 hPa 0,0 mm 0,3 km/h (0 Bft) W 270 5,0 C 0,0 km/h (0 Bft)
07.09.2015 18:40 12,3 C 12,8 C 61 % 1024,2 hPa 0,0 mm 0,0 km/h (0 Bft) W-SW 247 5,0 C 0,0 km/h (0 Bft)
07.09.2015 18:45 12,2 C 12,6 C 61 % 1024,2 hPa 0,0 mm 0,3 km/h (0 Bft) W-SW 247 4,9 C 0,0 km/h (0 Bft)
07.09.2015 18:50 12,1 C 12,3 C 62 % 1024,2 hPa 0,0 mm 0,3 km/h (0 Bft) W-SW 247 5,0 C 0,0 km/h (0 Bft)
07.09.2015 18:55 11,7 C 12,2 C 63 % 1024,3 hPa 0,0 mm 0,0 km/h (0 Bft) W-SW 247 4,9 C 0,0 km/h (0 Bft)
07.09.2015 19:00 11,6 C 11,9 C 65 % 1024,3 hPa 0,0 mm 0,0 km/h (0 Bft) W-SW 247 5,2 C 0,0 km/h (0 Bft)
07.09.2015 19:05 11,6 C 11,7 C 65 % 1024,3 hPa 0,0 mm 0,3 km/h (0 Bft) W-NW 292 5,2 C 3,6 km/h (1 Bft)
07.09.2015 19:10 11,7 C 11,7 C 65 % 1024,3 hPa 0,0 mm 0,5 km/h (0 Bft) W-NW 292 5,3 C 0,0 km/h (0 Bft)
07.09.2015 19:15 11,6 C 11,6 C 65 % 1024,2 hPa 0,0 mm 0,5 km/h (0 Bft) NW 315 5,2 C 3,6 km/h (1 Bft)
07.09.2015 19:20 11,5 C 11,5 C 65 % 1024,2 hPa 0,0 mm 1,3 km/h (1 Bft) W 270 5,2 C 3,4 km/h (1 Bft)
07.09.2015 19:25 11,5 C 11,5 C 65 % 1024,2 hPa 0,0 mm 1,8 km/h (1 Bft) NW 315 5,2 C 4,4 km/h (1 Bft)
07.09.2015 19:30 11,3 C 11,3 C 65 % 1024,2 hPa 0,0 mm 2,1 km/h (1 Bft) W 270 5,0 C 7,5 km/h (2 Bft)
07.09.2015 19:35 11,3 C 11,3 C 65 % 1024,6 hPa 0,0 mm 2,1 km/h (1 Bft) NW 315 5,0 C 0,0 km/h (0 Bft)
07.09.2015 19:40 11,1 C 11,1 C 65 % 1024,6 hPa 0,0 mm 1,3 km/h (1 Bft) W 270 4,8 C 0,0 km/h (0 Bft)
07.09.2015 19:45 11,0 C 11,0 C 66 % 1024,6 hPa 0,0 mm 0,0 km/h (0 Bft) W-SW 247 4,9 C 0,0 km/h (0 Bft)
07.09.2015 19:50 10,9 C 10,8 C 67 % 1024,6 hPa 0,0 mm 0,0 km/h (0 Bft) W-SW 247 5,0 C 0,0 km/h (0 Bft)
07.09.2015 19:55 10,8 C 10,8 C 67 % 1024,6 hPa 0,0 mm 0,0 km/h (0 Bft) W-SW 247 4,9 C 0,0 km/h (0 Bft)
07.09.2015 20:00 10,7 C 10,6 C 68 % 1024,6 hPa 0,0 mm 0,0 km/h (0 Bft) W-SW 247 5,0 C 0,0 km/h (0 Bft)
07.09.2015 20:05 10,6 C 10,6 C 68 % 1024,6 hPa 0,0 mm 0,0 km/h (0 Bft) W-SW 247 4,9 C 0,0 km/h (0 Bft)
07.09.2015 20:10 10,5 C 10,5 C 69 % 1024,6 hPa 0,0 mm 0,3 km/h (0 Bft) SW 225 5,1 C 0,0 km/h (0 Bft)
07.09.2015 20:15 10,5 C 10,5 C 69 % 1024,6 hPa 0,0 mm 0,3 km/h (0 Bft) S-SW 202 5,1 C 0,0 km/h (0 Bft)
07.09.2015 20:20 10,4 C 10,4 C 70 % 1024,6 hPa 0,0 mm 0,5 km/h (0 Bft) S 180 5,2 C 2,8 km/h (1 Bft)
07.09.2015 20:25 10,3 C 10,4 C 71 % 1024,6 hPa 0,0 mm 0,8 km/h (0 Bft) S 180 5,3 C 0,0 km/h (0 Bft)
07.09.2015 20:30 10,2 C 10,2 C 73 % 1024,6 hPa 0,0 mm 0,5 km/h (0 Bft) S 180 5,6 C 0,0 km/h (0 Bft)
07.09.2015 20:35 10,1 C 10,1 C 73 % 1024,8 hPa 0,0 mm 0,0 km/h (0 Bft) S 180 5,5 C 0,0 km/h (0 Bft)
07.09.2015 20:40 10,0 C 9,9 C 74 % 1024,8 hPa 0,0 mm 0,0 km/h (0 Bft) S 180 5,6 C 0,0 km/h (0 Bft)
07.09.2015 20:45 10,0 C 9,9 C 73 % 1024,8 hPa 0,0 mm 0,0 km/h (0 Bft) S 180 5,4 C 0,0 km/h (0 Bft)
07.09.2015 20:50 9,9 C 9,8 C 73 % 1024,8 hPa 0,0 mm 0,0 km/h (0 Bft) S 180 5,3 C 0,0 km/h (0 Bft)
07.09.2015 20:55 9,8 C 9,8 C 73 % 1024,8 hPa 0,0 mm 0,0 km/h (0 Bft) S 180 5,2 C 0,0 km/h (0 Bft)
07.09.2015 21:00 9,9 C 9,8 C 75 % 1024,8 hPa 0,0 mm 0,0 km/h (0 Bft) S 180 5,7 C 0,0 km/h (0 Bft)
07.09.2015 21:05 9,9 C 9,8 C 75 % 1024,8 hPa 0,0 mm 0,0 km/h (0 Bft) S 180 5,7 C 0,0 km/h (0 Bft)
07.09.2015 21:10 9,9 C 9,8 C 75 % 1024,8 hPa 0,0 mm 0,5 km/h (0 Bft) SW 225 5,7 C 0,0 km/h (0 Bft)
07.09.2015 21:15 9,8 C 9,8 C 74 % 1025,1 hPa 0,0 mm 0,5 km/h (0 Bft) S 180 5,4 C 0,0 km/h (0 Bft)
07.09.2015 21:20 9,8 C 9,7 C 75 % 1025,1 hPa 0,0 mm 0,0 km/h (0 Bft) W-SW 247 5,6 C 0,0 km/h (0 Bft)
07.09.2015 21:25 9,8 C 9,7 C 75 % 1025,1 hPa 0,0 mm 0,0 km/h (0 Bft) W-SW 247 5,6 C 0,0 km/h (0 Bft)
07.09.2015 21:30 9,7 C 9,6 C 75 % 1025,1 hPa 0,0 mm 0,5 km/h (0 Bft) SW 225 5,5 C 3,9 km/h (1 Bft)
07.09.2015 21:35 9,8 C 9,8 C 75 % 1025,1 hPa 0,0 mm 2,1 km/h (1 Bft) SW 225 5,6 C 6,0 km/h (2 Bft)
07.09.2015 21:40 10,0 C 10,0 C 74 % 1025,1 hPa 0,0 mm 5,2 km/h (1 Bft) S-SW 202 5,6 C 6,5 km/h (2 Bft)
07.09.2015 21:44 9,9 C 9,9 C 74 % 1025,1 hPa 0,0 mm 3,9 km/h (1 Bft) S 180 5,5 C 0,0 km/h (0 Bft)
07.09.2015 21:45 9,9 C 9,9 C 74 % 1025,1 hPa 0,0 mm 3,9 km/h (1 Bft) S 180 5,5 C 0,0 km/h (0 Bft)
07.09.2015 21:50 9,8 C 9,8 C 75 % 1025,1 hPa 0,0 mm 1,3 km/h (1 Bft) S 180 5,6 C 0,0 km/h (0 Bft)
07.09.2015 21:55 9,7 C 9,8 C 75 % 1025,1 hPa 0,0 mm 0,8 km/h (0 Bft) S 180 5,5 C 0,0 km/h (0 Bft)
07.09.2015 22:00 9,7 C 9,7 C 75 % 1025,1 hPa 0,0 mm 0,3 km/h (0 Bft) S 180 5,5 C 0,0 km/h (0 Bft)
07.09.2015 22:05 9,6 C 9,6 C 75 % 1025,1 hPa 0,0 mm 0,0 km/h (0 Bft) S-SO 157 5,4 C 0,0 km/h (0 Bft)
07.09.2015 22:10 9,5 C 9,4 C 76 % 1025,1 hPa 0,0 mm 0,3 km/h (0 Bft) S-SW 202 5,5 C 0,0 km/h (0 Bft)
07.09.2015 22:15 9,5 C 9,4 C 76 % 1025,0 hPa 0,0 mm 0,3 km/h (0 Bft) S-SO 157 5,5 C 0,0 km/h (0 Bft)
07.09.2015 22:20 9,4 C 9,3 C 77 % 1025,0 hPa 0,0 mm 0,0 km/h (0 Bft) S-SO 157 5,6 C 0,0 km/h (0 Bft)
07.09.2015 22:25 9,3 C 9,2 C 77 % 1025,0 hPa 0,0 mm 0,0 km/h (0 Bft) S-SO 157 5,5 C 0,0 km/h (0 Bft)
07.09.2015 22:30 9,2 C 9,1 C 77 % 1025,0 hPa 0,0 mm 0,0 km/h (0 Bft) S-SO 157 5,4 C 0,0 km/h (0 Bft)
07.09.2015 22:35 9,2 C 9,1 C 78 % 1024,9 hPa 0,0 mm 0,0 km/h (0 Bft) S-SO 157 5,6 C 0,0 km/h (0 Bft)
07.09.2015 22:40 9,1 C 9,1 C 77 % 1024,9 hPa 0,0 mm 0,0 km/h (0 Bft) S-SO 157 5,3 C 0,0 km/h (0 Bft)
07.09.2015 22:45 9,1 C 9,0 C 77 % 1024,9 hPa 0,0 mm 0,0 km/h (0 Bft) S-SO 157 5,3 C 0,0 km/h (0 Bft)
07.09.2015 22:50 9,1 C 9,0 C 77 % 1024,9 hPa 0,0 mm 0,0 km/h (0 Bft) S-SO 157 5,3 C 0,0 km/h (0 Bft)
07.09.2015 22:55 9,1 C 9,0 C 78 % 1025,0 hPa 0,0 mm 0,0 km/h (0 Bft) S 180 5,5 C 0,0 km/h (0 Bft)
07.09.2015 23:00 9,1 C 8,9 C 78 % 1025,0 hPa 0,0 mm 0,0 km/h (0 Bft) S 180 5,5 C 0,0 km/h (0 Bft)
07.09.2015 23:05 9,1 C 8,9 C 79 % 1025,0 hPa 0,0 mm 1,0 km/h (0 Bft) S-SO 157 5,7 C 6,7 km/h (2 Bft)
07.09.2015 23:10 9,2 C 9,1 C 79 % 1025,0 hPa 0,0 mm 2,1 km/h (1 Bft) S-SO 157 5,8 C 0,0 km/h (0 Bft)
07.09.2015 23:15 9,2 C 9,1 C 79 % 1024,9 hPa 0,0 mm 1,3 km/h (1 Bft) S-SO 157 5,8 C 0,0 km/h (0 Bft)
07.09.2015 23:20 9,2 C 9,1 C 79 % 1024,9 hPa 0,0 mm 2,3 km/h (1 Bft) S 180 5,8 C 6,0 km/h (2 Bft)
07.09.2015 23:25 9,1 C 9,0 C 79 % 1024,9 hPa 0,0 mm 2,8 km/h (1 Bft) S 180 5,7 C 0,0 km/h (0 Bft)
07.09.2015 23:30 9,1 C 9,0 C 79 % 1024,9 hPa 0,0 mm 2,1 km/h (1 Bft) S-SO 157 5,7 C 3,1 km/h (1 Bft)
07.09.2015 23:35 9,1 C 9,0 C 80 % 1024,9 hPa 0,0 mm 0,8 km/h (0 Bft) S-SO 157 5,8 C 0,0 km/h (0 Bft)
07.09.2015 23:40 9,0 C 8,9 C 80 % 1024,9 hPa 0,0 mm 0,3 km/h (0 Bft) S-SO 157 5,7 C 0,0 km/h (0 Bft)
07.09.2015 23:45 8,9 C 8,8 C 80 % 1024,9 hPa 0,0 mm 0,0 km/h (0 Bft) S-SO 157 5,6 C 0,0 km/h (0 Bft)
07.09.2015 23:50 8,9 C 8,8 C 80 % 1024,9 hPa 0,0 mm 0,0 km/h (0 Bft) S-SO 157 5,6 C 0,0 km/h (0 Bft)
07.09.2015 23:55 8,9 C 8,7 C 80 % 1025,0 hPa 0,0 mm 0,0 km/h (0 Bft) S-SW 202 5,6 C 0,0 km/h (0 Bft)
_ Min-Zeit 06:50 04:35 15:45 04:50 - 23:55 - - 06:55 23:55
Minimum _ 3,7 C 3,3 C 50 % 1016,8 hPa - 0,0 km/h (0 Bft) - - 2,0 C 0,0 km/h (0 Bft)
_ Max-Zeit 15:20 15:30 07:50 16:10 23:55 16:15 - - 11:15 17:00
Maximum _ 16,2 C 20,5 C 92 % 1026,0 hPa 0,0 mm 12,2 km/h
NW (2 Bft)
- - 6,9 C 31,3 km/h
NW (5 Bft)
Durchschnitt _ 9,5 C 10,7 C 74 % 1020,2 hPa #0,0 mm 3,7 km/h (1 Bft) NW - 4,8 C 5,0 km/h (1 Bft)